Location: Castera-Lou
(43.3236°N, 0.1470°E)
Time: 14:37:19
(UTC+00:00)

Daily predictions for brighter satellites

Satellite Brightness Start Highest point End
(mag) Time Altitude Azimuth Time Altitude Azimuth Time Altitude Azimuth
PSLV R/B 3.8 17:32:19 10° SSE 17:36:22 82° ENE 17:40:23 10° N
NOSS 3-1 (C) 4.4 17:34:46 10° SSE 17:38:24 20° ESE 17:42:22 10° ENE
YAOGAN 1 4.0 17:37:56 10° ESE 17:40:47 18° ENE 17:43:39 10° NNE
Cosmos 1455 Rocket 3.7 17:37:55 10° SSE 17:41:55 35° E 17:45:57 10° NNE
SL-19 R/B 4.3 17:36:14 10° NNE 17:41:55 62° ESE 17:47:24 10° S
CZ-4B DEB 4.4 17:37:26 10° SSE 17:42:58 82° WSW 17:48:34 10° NNW
MOS 1-B 4.3 17:37:30 10° SSE 17:43:16 77° ENE 17:49:04 10° NNW
Cosmos 405 Rocket 3.5 17:40:17 10° N 17:43:54 33° ENE 17:47:33 10° SE
CZ-4B R/B 3.3 17:40:38 10° SSE 17:46:10 61° ENE 17:51:45 10° N
Cosmos 2150 Rocket 4.4 17:41:04 10° SSW 17:46:29 71° WNW 17:51:53 10° NNE
PAYLOAD B 4.2 17:41:19 10° SSE 17:46:50 86° ENE 17:52:25 10° NNW
H-2A R/B 3.7 17:46:12 10° ENE 17:48:06 13° E 17:50:02 10° ESE
Cosmos 1758 4.2 17:45:15 10° SSW 17:49:09 53° W 17:53:03 10° N
Okean O Rocket 1.8 17:46:41 10° SE 17:50:51 47° ENE 17:55:02 10° N
H-2A R/B 3.5 17:49:02 10° SE 17:52:41 27° ENE 17:56:16 10° N
Cosmos 1544 Rocket 4.4 17:51:59 10° SSE 17:55:48 28° E 17:59:37 10° NNE
Cosmos 1953 2.3 17:52:02 10° S 17:56:03 71° E 18:00:06 10° NNE
Cosmos 2369 4.2 17:52:37 10° SW 17:58:13 64° WNW 18:03:54 10° NNE
CZ-4C R/B 3.4 17:56:07 10° NNE 17:59:18 38° E 18:02:23 10° SSE
Meteor 1-21 Rocket 4.3 17:53:58 10° N 17:59:51 76° E 18:05:46 10° SSE
ARGOS 3.3 17:56:07 10° SE 18:01:19 51° ENE 18:06:33 10° N
Cosmos 1980 Rocket 2.4 17:57:00 10° SSW 18:02:40 77° WNW 18:08:23 10° NNE
Cosmos 2263 Rocket 2.2 17:57:47 10° NNW 18:03:16 56° ENE 18:08:43 10° SE
CZ-2D R/B 3.6 18:01:05 10° S 18:04:54 69° W 18:08:46 10° NNW
Cosmos 2123 Rocket 4.2 17:59:00 10° N 18:05:06 47° ENE 18:11:08 10° SSE
OPS 6432 4.4 18:02:39 10° NNW 18:05:37 53° NE 18:09:11 10° SE
H-2A R/B 2.2 18:00:39 10° SSE 18:06:00 89° ENE 18:11:30 10° NNW
CZ-4 R/B 4.5 18:02:06 10° SSE 18:06:08 56° ENE 18:10:11 10° N
CZ-4 R/B 2.2 18:03:27 10° SE 18:06:54 29° ENE 18:10:25 10° N
Okean-O 4.0 18:05:16 15° E 18:07:04 19° ENE 18:10:10 10° NNE
Okean 1-7 Rocket 3.9 18:06:29 10° N 18:10:40 41° ENE 18:14:52 10° SSE
Cosmos 389 Rocket 4.4 18:13:27 10° SW 18:16:30 31° WNW 18:19:36 10° N
Iridium 4 Rocket 3.3 18:14:51 10° N 18:19:20 57° E 18:24:12 10° SSE
Cosmos 1697 Rocket 4.5 18:14:48 10° WSW 18:19:47 31° NW 18:24:49 10° N
COSMO-SKYMED 1 2.7 18:17:12 10° N 18:21:33 77° WNW 18:25:53 10° SSW
CZ-2C R/B 2.7 18:17:06 10° NNE 18:22:44 83° ESE 18:28:16 10° SSW
Cosmos 1908 4.5 18:20:36 10° SSW 18:24:19 44° WNW 18:28:02 10° N
Landsat 5 3.8 18:22:38 10° N 18:27:01 74° WNW 18:31:29 10° SSW
X-37B 0.8 18:25:23 10° W 18:28:32 60° N 18:29:33 37° ENE
Cosmos 1892 Rocket 4.3 18:27:21 10° NNW 18:31:45 57° W 18:36:04 10° S
NOSS 2-3 (E) 3.6 18:31:29 10° SSW 18:35:18 47° ESE 18:37:00 30° ENE
Cosmos 1269 Rocket 4.0 18:30:22 10° NNW 18:35:42 88° WSW 18:40:59 10° SSE
Cosmos 1844 Rocket 3.7 18:32:42 10° N 18:37:16 25° NE 18:38:02 24° ENE
USA 229 DEB 4.1 18:33:48 10° S 18:39:25 35° ESE 18:42:06 25° ENE
USA 229 4.1 18:33:55 10° S 18:39:31 35° ESE 18:42:07 26° ENE
Feng Yun 1-1 Rocket 4.2 18:34:48 10° SSE 18:40:19 87° ENE 18:46:02 10° NNW
IRAS Rocket 4.1 18:39:50 10° NNE 18:45:26 86° ESE 18:50:57 10° SSW
NOSS 8 (E) 4.3 18:46:28 10° SW 18:50:03 79° NW 18:50:35 57° NNE
Cosmos 371 Rocket 3.3 18:45:35 10° SSW 18:50:26 86° WNW 18:55:22 10° NNE
Spot 2 4.3 18:48:03 10° S 18:52:05 65° WSW 18:56:20 10° NNW
Cosmos 1605 Rocket 3.9 18:46:09 10° S 18:52:21 71° E 18:58:40 10° NNE
Cosmos 2251 Rocket 4.0 18:47:37 10° N 18:52:30 37° ENE 18:52:48 37° ENE
IRS-1C Rocket 4.0 18:47:26 10° SSE 18:52:38 66° ENE 18:57:52 10° N
Meteor 1-4 Rocket 4.1 18:50:18 10° S 18:51:40 22° S 18:51:40 22° S
Lacrosse 4 Rocket 2.2 18:50:41 10° NNW 18:54:19 36° NE 18:54:19 36° NE
SL-16 R/B 2.1 18:49:28 10° SSW 18:55:08 80° ESE 19:00:50 10° NNE
Cosmos 1626 Rocket 3.4 18:53:31 10° N 18:57:52 90° W 19:02:10 10° S
CZ-2C R/B 2.8 18:58:52 10° SW 19:01:12 19° SSW 19:01:12 19° SSW
NOSS 3-1 (A) 3.3 18:56:45 10° S 19:01:42 48° ESE 19:02:24 45° E
Cosmos 1447 Rocket 4.4 18:57:12 10° N 19:03:17 60° E 19:07:11 23° SSE
Cosmos 1300 3.7 18:59:59 10° SSW 19:03:39 47° WNW 19:07:21 10° N
Tiangong 2.4 19:04:34 10° WSW 19:06:42 37° SW 19:06:42 37° SW
Cosmos 2322 Rocket 2.0 19:04:38 10° SSW 19:10:13 80° ESE 19:14:14 20° NNE
ATLAS 5 CENTAUR R/B 3.5 19:07:34 10° W 19:10:46 23° NW 19:13:59 11° NNE
Meteor 2-10 Rocket 3.5 19:06:03 10° S 19:11:43 84° E 19:17:10 10° NNE
HJ-1C 4.2 19:12:34 49° W 19:12:34 49° W 19:15:35 10° NNW
SL-8 R/B 4.1 19:08:43 10° W 19:13:26 57° NNW 19:14:17 49° NNE
YAOGAN 1 3.5 19:12:21 10° S 19:16:30 47° W 19:20:42 10° NNW
Cosmos 1844 4.3 19:11:20 10° NNW 19:16:17 40° NE 19:16:17 40° NE
NOSS 2-3 (D) 3.7 19:18:34 10° SW 19:22:36 68° NW 19:22:51 65° NNW
Cosmos 2360 Rocket 2.4 19:17:10 10° S 19:21:41 52° SSE 19:21:41 52° SSE
H-2A R/B 2.6 19:20:22 10° N 19:24:23 55° WNW 19:28:27 10° SSW
NOSS 3-1 (C) 3.5 19:23:12 10° SW 19:28:23 63° NW 19:31:33 28° NNE
Orbus 7S? 4.3 19:21:39 10° NW 19:28:54 54° NNE 19:28:54 54° NNE
Cosmos 2344 4.3 19:22:59 10° NW 19:32:17 78° NE 19:38:08 37° SE
Cosmos 44 4.2 19:26:57 10° SSW 19:30:33 42° S 19:30:33 42° S
NOSS 2-3 (C) 4.3 19:31:26 10° SW 19:35:22 49° NW 19:35:24 49° NW
In-Cosmos 22 Rocket 4.3 19:36:19 10° NNW 19:41:35 65° W 19:42:41 51° SSW
CZ-4 R/B 3.7 19:38:41 10° SSW 19:41:52 23° W 19:45:08 10° NW
Okean-O 3.6 19:42:52 44° WSW 19:43:12 45° W 19:47:28 10° NNW
Cosmos 2263 Rocket 4.5 19:42:39 10° NW 19:46:44 21° W 19:50:48 10° SSW
Cosmos 1844 Rocket 3.9 20:16:03 10° NNW 20:19:43 38° WNW 20:19:43 38° WNW
USA 229 DEB 4.3 20:23:55 10° WSW 20:29:38 49° WNW 20:29:38 49° WNW
USA 229 4.3 20:24:01 10° WSW 20:29:39 49° WNW 20:29:39 49° WNW
Lacrosse 4 Rocket 4.4 20:29:43 10° NW 20:30:38 14° WNW 20:30:38 14° WNW
